[Date Prev][Date Next][Thread Prev][Thread Next] - [Date Index][Thread Index][Author Index]
2 Line ISS Keps 10-22
- Subject: [sarex] 2 Line ISS Keps 10-22
- From: "Dave Larsen PhD" <doc@xxxxxxxxxxx>
- Date: Mon, 22 Oct 2001 03:57:22 -0700
ISS
1 25544U 98067A 01295.40046296 .00081214 00000-0 10677-2 0 6343
2 25544 51.6390 168.8309 0008065 231.3147 135.0902 15.57741105166932
----
Via the sarex mailing list at AMSAT.ORG courtesy of AMSAT-NA.
To unsubscribe, send "unsubscribe sarex" to Majordomo@amsat.org
AMSAT Home